Location: Brighton Point
(40.6144°N, 111.7933°W)
Time: 15:29:16
(UTC+00:00)

ISS - Pass Details

Date: 17 March 2021
Orbit: 418 x 422 km, 51.6° (Epoch: 17 April)

Event Time Altitude Azimuth Distance (km) Brightness Sun altitude
Rises 03:40:08 0° 231° (SW) 2,355 0.5 -24.0°
Reaches altitude 10° 03:42:14 10° 230° (SW) 1,493 -0.6 -24.4°
Enters shadow 03:43:12 18° 230° (SW) 1,105 -1.4 -24.6°
